"Pseudo-MPEC" for P11JCp2

Created 2023 Sep 19 11:22:24 UT using Find_Orb

Click here for an explanation of pseudo-MPECs

 
 Astrometry: 
     P11JCp2  C2023 09 09cQaN5R'\yAstrometry_@iXf*$-Y'Aq@A09i+;!nFbv\nWH9kO%PF51
     P11JCp2  C2023 09 09-f/5aZ/Y!?`o.Edc90%ilNFevc$gl]=y#M4eaCDc=^XK]BiPRn?yF51
     P11JCp2  C2023 09 09vfdr)h:uKWt(^cmF,lcI*uOhqrr#f8c$f5a.O\3a0ys/EUb):]2\F51
     P11JCp2* C2023 09 15T*TXKl4hJ!#e/-GwnX9m+m1XUoLm'.GfbY7/n%3I\y2iF/]X+d%xF51
     P11JCp2  C2023 09 15O7-xcZqFY[]B)V,xU?hU(%h+d,0b[GJ40Jn[L::bQ7kmmxkq3WymF51
     P11JCp2  C2023 09 15y*W+ntA;DU%nI`u=U]nl(a9Z,;Q@L+35j1*RybaY10?,'NCut%\3F51
     P11JCp2  C2023 09 15`i(kc/vv52@p_-I!n(2Yr`Po\%uredacted;r8[auJ*#sius_4b5F51
     P11JCp2  C2023 09 15uk.mNnwD*s#oTdD4i(7C!t?,U(vPsx8@,qJ7NCnwQXAf!IWE$^=xF51
     P11JCp2  C2023 09 15#$-+]XRORX\$]MRZA)fSJ,/Mclickc.Q!%)%)7d)Nw5$)n:-+A_eF51
     P11JCp2 3C2023 09 18h+Il7XsU@JVF.5OET3MQ+ZpEBU@'u\J,prdj'_n]+M4!'!here)2T14
     P11JCp2 3C2023 09 18$4FN4h*TJ%7N_wDW;h8]v+_#t;*uDy2NF+X!U7forl)vi'.*pF+ST14
     P11JCp2 3C2023 09 18vjlyda]`explanation+S_pg!E?0\e93T@u_6ADCr46KSw/9]bRUT14

Station data:
(F51) Pan-STARRS 1, Haleakala  (N20.707234 W156.255910)  US/Hawaii.
   Observers J. Bulger, T. Lowe, A. Schultz, M. Willman. Measurers K.
   Chambers, S. Chastel, T. de Boer, L. Denneau, J. Fairlamb, H. Flewelling,
   M. Huber, C.-C. Lin, E. Magnier, Y. Ramanjooloo, R. Wainscoat, R. Weryk.
   1.8-m Ritchey-Chrétien + CCD.
(T14) Mauna Kea-UH/Tholen NEO Follow-Up (CFHT)  (N19.825252 W155.468876)
   US/Hawaii.  Observer R. Weryk. 3.6-m Canada-France-Hawaii Telescope.

Orbital elements:  P11JCp2
   Perihelion 2023 May 14.64809 +/- 0.113 TT = 15:33:15 (JD 2460079.14809)
Epoch 2023 Sep 18.0 TT = JDT 2460205.5   Earth MOID: 0.2512   Ma: 0.0458
M  38.51895863 +/- 0.041            (J2000 ecliptic)             AutoNEOCP
n   0.30485458 +/- 0.000509         Peri.  130.74593 +/- 0.06
a   2.18645676 +/- 0.00243          Node   140.85680 +/- 0.024
e   0.4277389 +/- 0.000655          Incl.    6.26911 +/- 0.009
P   3.23                   H 21.31  G  0.15   U  7.7
q 1.25122405 +/- 0.000213    Q 3.12168947 +/- 0.0049
From 12 observations 2023 Sept. 9-18; mean residual 0".14
Residuals in arcseconds: 
230909 F51  .25+  .20+    230915 F51  .22-  .05+    230915 F51  .15+  .10-    
230909 F51  .36-  .12-    230915 F51  .03-  .08+    230918 T14  .03-  .01-    
230909 F51  .11+  .07-    230915 F51  .01-  .21-    230918 T14  .00   .01-    
230915 F51  .04+  .01-    230915 F51  .08+  .18+    230918 T14  .03+  .02+    

Ephemerides (geocentric):
Date (UTC) HH   RA             Dec           delta  r     elong  mag " sig PA
---- --------  ------------   ------------  ------ ------ -----  --- --------
2023 09 19 11  00 03 33.385   -09 09 14.30  .72249 1.7222 171.2 22.2 .084 163
2023 09 19 12  00 03 30.741   -09 09 40.36  .72273 1.7224 171.2 22.2 .087 163
2023 09 19 13  00 03 28.097   -09 10 06.38  .72297 1.7227 171.2 22.2 .089 163
2023 09 19 14  00 03 25.454   -09 10 32.38  .72320 1.7229 171.2 22.2 .092 162
2023 09 19 15  00 03 22.813   -09 10 58.33  .72344 1.7231 171.2 22.2 .095 162
2023 09 19 16  00 03 20.172   -09 11 24.26  .72368 1.7233 171.2 22.2 .098 162
2023 09 19 17  00 03 17.533   -09 11 50.15  .72391 1.7236 171.2 22.2 .101 162
2023 09 19 18  00 03 14.895   -09 12 16.00  .72415 1.7238 171.2 22.2 .104 162
2023 09 19 19  00 03 12.257   -09 12 41.82  .72439 1.7240 171.2 22.2 .107 162
2023 09 19 20  00 03 09.621   -09 13 07.61  .72463 1.7243 171.2 22.2 .110 162
2023 09 19 21  00 03 06.986   -09 13 33.36  .72487 1.7245 171.2 22.2 .113 162
2023 09 19 22  00 03 04.352   -09 13 59.08  .72511 1.7247 171.2 22.2 .116 162
2023 09 19 23  00 03 01.719   -09 14 24.77  .72535 1.7249 171.2 22.2 .119 162
2023 09 20 00  00 02 59.087   -09 14 50.42  .72559 1.7252 171.2 22.2 .122 163
2023 09 20 01  00 02 56.457   -09 15 16.04  .72583 1.7254 171.2 22.2 .125 163
2023 09 20 02  00 02 53.827   -09 15 41.62  .72607 1.7256 171.2 22.2 .128 163
2023 09 20 03  00 02 51.199   -09 16 07.17  .72631 1.7259 171.2 22.2 .131 163
2023 09 20 04  00 02 48.571   -09 16 32.68  .72655 1.7261 171.2 22.2 .134 163
2023 09 20 05  00 02 45.945   -09 16 58.16  .72679 1.7263 171.2 22.2 .138 163
2023 09 20 06  00 02 43.320   -09 17 23.60  .72703 1.7265 171.2 22.2 .141 163
2023 09 20 07  00 02 40.697   -09 17 49.01  .72728 1.7268 171.2 22.2 .144 163
2023 09 20 08  00 02 38.074   -09 18 14.39  .72752 1.7270 171.2 22.2 .147 163
2023 09 20 09  00 02 35.453   -09 18 39.73  .72776 1.7272 171.2 22.2 .151 163
2023 09 20 10  00 02 32.833   -09 19 05.03  .72801 1.7275 171.2 22.2 .154 163
2023 09 20 11  00 02 30.214   -09 19 30.30  .72825 1.7277 171.2 22.2 .157 163
2023 09 20 12  00 02 27.596   -09 19 55.54  .72849 1.7279 171.2 22.2 .161 163
2023 09 20 13  00 02 24.980   -09 20 20.74  .72874 1.7281 171.2 22.2 .164 163
2023 09 20 14  00 02 22.364   -09 20 45.91  .72898 1.7284 171.2 22.2 .167 163
2023 09 20 15  00 02 19.750   -09 21 11.04  .72923 1.7286 171.2 22.2 .171 163
2023 09 20 16  00 02 17.137   -09 21 36.13  .72948 1.7288 171.2 22.2 .174 163
2023 09 20 17  00 02 14.526   -09 22 01.20  .72972 1.7291 171.2 22.2 .178 164
2023 09 20 18  00 02 11.916   -09 22 26.22  .72997 1.7293 171.2 22.2 .181 164
2023 09 20 19  00 02 09.307   -09 22 51.21  .73022 1.7295 171.2 22.2 .185 164
2023 09 20 20  00 02 06.699   -09 23 16.17  .73046 1.7297 171.2 22.2 .188 164
2023 09 20 21  00 02 04.093   -09 23 41.09  .73071 1.7300 171.2 22.2 .192 164
2023 09 20 22  00 02 01.488   -09 24 05.98  .73096 1.7302 171.2 22.2 .195 164
2023 09 20 23  00 01 58.884   -09 24 30.83  .73121 1.7304 171.1 22.2 .199 164
2023 09 21 00  00 01 56.281   -09 24 55.64  .73146 1.7307 171.1 22.2 .202 164
2023 09 21 01  00 01 53.680   -09 25 20.42  .73171 1.7309 171.1 22.2 .206 164
2023 09 21 02  00 01 51.081   -09 25 45.17  .73196 1.7311 171.1 22.2 .210 164
2023 09 21 03  00 01 48.482   -09 26 09.88  .73221 1.7313 171.1 22.2 .214 164
2023 09 21 04  00 01 45.885   -09 26 34.55  .73246 1.7316 171.1 22.2 .217 165
2023 09 21 05  00 01 43.289   -09 26 59.19  .73271 1.7318 171.1 22.3 .221 165
2023 09 21 06  00 01 40.695   -09 27 23.79  .73296 1.7320 171.1 22.3 .225 165
2023 09 21 07  00 01 38.102   -09 27 48.36  .73321 1.7323 171.1 22.3 .229 165
2023 09 21 08  00 01 35.510   -09 28 12.89  .73346 1.7325 171.1 22.3 .232 165
2023 09 21 09  00 01 32.920   -09 28 37.39  .73371 1.7327 171.1 22.3 .236 165
2023 09 21 10  00 01 30.331   -09 29 01.85  .73397 1.7329 171.1 22.3 .240 165